Location: Hilton Head Island
(32.2163°N, 80.7526°W)
Time: 04:05:35
(UTC-04:00)

Explorer 7 - Pass Details

Date: 24 February 2026
Orbit: 430 x 542 km, 50.2° (Epoch: 7 March)

Event Time Altitude Azimuth Distance (km) Brightness Sun altitude
Rises 11:53:05 0° 230° (SW) 2,382 10.3 47.3°
Reaches altitude 10° 11:55:11 10° 231° (SW) 1,517 9.4 47.4°
Maximum altitude 11:58:35 76° 318° (NW) 447 7.0 47.5°
Drops below altitude 10° 12:02:02 10° 44° (NE) 1,540 9.0 47.7°
Sets 12:04:10 0° 46° (NE) 2,422 9.9 47.8°
